Location: Pinhead Observatory
(34.4473°N, 118.1985°W)
Time: 00:32:57
(UTC-07:00)

CZ-4C R/B - Visible Passes

Search period start: 01 November 2014 00:00
Search period end: 10 November 2014 23:00
Orbit: 785 x 1218 km, 63.4° (Epoch: 31 October)

Date Brightness Start Highest point End Pass type
(mag) Time Alt. Az. Time Alt. Az. Time Alt. Az.
01 Nov 4.3 04:22:34 20° N 04:26:30 32° NE 04:33:04 10° ESE visible
01 Nov 3.0 06:08:25 10° NW 06:15:22 54° WSW 06:22:44 10° S visible
01 Nov 2.2 19:39:56 10° SSW 19:45:09 54° ESE 19:45:54 50° E visible
01 Nov 4.8 21:29:51 10° W 21:31:10 15° W 21:31:10 15° W visible
02 Nov 5.1 02:10:57 14° NE 02:10:57 14° NE 02:14:15 10° ENE visible
02 Nov 3.2 03:56:13 26° NNW 04:00:29 63° ENE 04:08:01 10° SE visible
02 Nov 3.9 05:43:05 10° WNW 05:48:42 25° WSW 05:54:33 10° SSW visible
02 Nov 3.7 17:27:52 10° SE 17:30:56 15° ESE 17:34:06 10° ENE visible
02 Nov 2.6 19:13:21 10° SW 19:18:41 60° NW 19:19:38 52° NNW visible
03 Nov 4.4 02:44:44 27° NE 02:45:07 27° NE 02:51:17 10° ESE visible
03 Nov 2.8 04:30:00 27° NW 04:34:09 65° WSW 04:41:42 10° SSE visible
03 Nov 2.5 17:58:59 10° S 18:04:01 42° ESE 18:08:00 17° NE visible
03 Nov 4.0 19:48:05 10° WSW 19:52:40 26° NW 19:53:15 26° NW visible
04 Nov 3.4 03:18:37 52° NE 03:19:12 53° NE 03:26:34 10° SE visible
04 Nov 3.6 05:03:54 20° WNW 05:07:34 30° WSW 05:13:58 10° SSW visible
04 Nov 2.3 18:32:03 10° SW 18:37:26 75° WNW 18:41:30 20° NNE visible
04 Nov 4.9 20:24:41 10° WNW 20:26:44 13° NW 20:26:44 13° NW visible
05 Nov 5.1 02:07:18 16° E 02:07:18 16° E 02:09:23 10° E visible
05 Nov 2.7 03:52:35 76° W 03:52:56 78° WSW 04:00:34 10° SSE visible
05 Nov 4.4 05:38:03 10° W 05:40:43 12° WSW 05:43:25 10° SW visible
05 Nov 2.9 17:18:08 10° S 17:22:53 33° ESE 17:27:57 10° NE visible
05 Nov 3.7 19:06:26 10° WSW 19:11:18 32° NW 19:14:52 17° N visible
06 Nov 4.4 02:41:19 28° ESE 02:41:19 28° ESE 02:45:03 10° SE visible
06 Nov 3.4 04:26:36 37° WSW 04:26:36 37° WSW 04:33:14 10° S visible
06 Nov 2.1 17:50:49 10° SSW 17:56:13 87° ESE 18:02:05 10° NNE visible
06 Nov 4.7 19:42:24 10° WNW 19:45:37 15° NW 19:48:06 12° NNW visible
07 Nov 4.0 03:15:20 35° SSE 03:15:20 35° SSE 03:19:21 10° SSE visible
07 Nov 4.3 05:00:37 15° WSW 05:00:37 15° WSW 05:03:50 10° SW visible
07 Nov 3.4 18:24:53 10° WSW 18:29:57 39° NW 18:35:28 10° NNE visible
08 Nov 4.2 03:49:19 25° S 03:49:19 25° S 03:52:23 10° S visible
08 Nov 2.2 17:09:41 10° SSW 17:15:01 69° ESE 17:20:48 10° NE visible
08 Nov 4.5 19:00:22 10° W 19:04:10 18° NW 19:08:10 10° N visible
09 Nov 5.3 02:37:58 10° SE 02:37:58 10° SE 02:38:04 10° SE visible
09 Nov 4.8 04:23:15 11° SSW 04:23:15 11° SSW 04:23:42 10° SSW visible
09 Nov 3.1 17:43:25 10° SW 17:48:39 48° NW 17:54:21 10° NNE visible
10 Nov 4.3 18:18:29 10° W 18:22:44 22° NW 18:27:16 10° N visible
